Location: Katowice
(50.2611°N, 19.0242°E)
Time: 20:14:24
(UTC+02:00)

S-56A Canister/Altair - Visible Passes

Search period start: 21 July 2019 00:00
Search period end: 31 July 2019 00:00
Orbit: 632 x 2500 km, 38.9° (Epoch: 20 July)

Date Brightness Start Highest point End Pass type
(mag) Time Alt. Az. Time Alt. Az. Time Alt. Az.
24 Jul 11.1 04:16:34 10° SSE 04:20:29 12° SE 04:24:48 10° ESE visible
28 Jul 10.5 04:05:17 10° S 04:11:29 20° SE 04:19:14 10° E visible
29 Jul 10.5 03:33:43 10° SSE 03:38:49 17° SE 03:44:59 10° E visible
30 Jul 10.5 03:02:35 10° SSE 03:06:13 13° SE 03:10:23 10° ESE visible
